Flag for USA

Past Weather in Braintree, Massachusetts, USA — Yesterday and Last 2 Weeks

Now
75 °F

Sunny.


Feels Like: 77 °F
Forecast: 76 / 64 °F
Wind: 8 mph from East

Location: Norwood Memorial Airport

Current Time: Jul 6, 2020 at 5:52:19 pm

Latest Report: Jul 6, 2020 at 4:53 pm


Visibility: 10 mi

Pressure: 30.09 "Hg

Humidity: 60%

Dew Point: 60 °F

Location of BraintreeLocation

Past Weather in Braintree — Graph

°F

Braintree Temperature Yesterday

Maximum temperature yesterday: 86 °F (at 3:53 pm)
Minimum temperature yesterday: 64 °F (at 2:53 am)
Average temperature yesterday: 73 °F

High & Low Weather Summary for the Past Weeks

 TemperatureHumidityPressure
High92 °F (Jun 21, 3:53 pm)94% (Jun 28, 6:25 am)30.10 "Hg (Jun 28, 6:25 am)
Low55 °F (Jun 27, 5:26 am)27% (Jun 25, 4:53 pm)29.65 "Hg (Jun 24, 1:53 pm)
Average71 °F78%29.85 "Hg
* Reported Jun 21 3:53 pm — Jul 6 3:53 pm, Braintree. Weather by CustomWeather, © 2020

Note: Actual official high and low records may vary slightly from our data, if they occured in-between our weather recording intervals... More about our weather records

Braintree Weather History for the Previous 24 Hours

Scroll right to see more
 ConditionsComfort  
Time TempWeatherWind HumidityBarometerVisibility
3:53 pm
Mon, Jul 6
76 °FSunny.10 mph62%30.09 "Hg10 mi
2:53 pm77 °FSunny.8 mph62%30.10 "Hg10 mi
2:05 pm77 °FPassing clouds.9 mph64%30.10 "Hg10 mi
1:53 pm75 °FPartly sunny.7 mph66%30.09 "Hg10 mi
1:09 pm75 °FPartly sunny.6 mph71%30.10 "Hg10 mi
12:53 pm75 °FPassing clouds.7 mph69%30.09 "Hg10 mi
12:02 pm75 °FMore clouds than sun.10 mph71%30.10 "Hg10 mi
11:03 am73 °FCloudy.6 mph74%30.08 "Hg10 mi
10:53 am73 °FMostly cloudy.5 mph74%30.08 "Hg10 mi
9:53 am70 °FOvercast.5 mph81%30.06 "Hg10 mi
8:53 am70 °FOvercast.6 mph81%30.05 "Hg10 mi
8:38 am70 °FOvercast.6 mph81%30.05 "Hg9 mi
7:53 am69 °FFog.3 mph87%30.03 "Hg6 mi
7:36 am69 °FFog.5 mph87%30.03 "Hg4 mi
7:20 am68 °FFog.3 mph90%30.02 "Hg2 mi
7:00 am68 °FFog.3 mph87%30.02 "Hg4 mi
6:35 am68 °FFog.3 mph87%30.01 "Hg6 mi
6:21 am68 °FFog.3 mph87%30.01 "Hg6 mi
5:53 am68 °FFog.No wind87%29.99 "Hg5 mi
4:53 am68 °FFog.No wind90%29.97 "Hg6 mi
4:14 am68 °FFog.No wind90%29.97 "Hg3 mi
3:53 am67 °FFog.No wind90%29.96 "Hg4 mi
3:31 am65 °FFog.No wind94%29.96 "Hg6 mi
2:59 am64 °FFog.No wind90%29.96 "Hg1 mi
2:32 am64 °FFog.3 mph90%29.97 "Hg2 mi
2:01 am64 °FFog.No wind90%29.96 "Hg2 mi
1:38 am65 °FFog.No wind91%29.96 "Hg1 mi
1:21 am65 °FFog.No wind91%29.95 "Hg2 mi
12:53 am65 °FFog.No wind91%29.95 "Hg5 mi
12:01 am67 °FClear.No wind87%29.95 "Hg10 mi
11:36 pm
Sun, Jul 5
68 °FThundershowers. Passing clouds.9 mph84%29.95 "Hg10 mi
11:16 pm69 °FThunderstorms. Passing clouds.6 mph81%29.97 "Hg2 mi
11:00 pm71 °FStrong thunderstorms. Fog.13 mph87%29.97 "Hg1 mi
10:28 pm73 °FThunderstorms. Fog.5 mph88%29.93 "Hg6 mi
10:02 pm73 °FThundershowers. Passing clouds.6 mph88%29.93 "Hg7 mi
8:53 pm73 °FFog.No wind88%29.91 "Hg4 mi
7:53 pm75 °FSunny.3 mph85%29.90 "Hg7 mi
6:53 pm76 °FPassing clouds.No wind80%29.90 "Hg8 mi
6:09 pm75 °FBroken clouds.7 mph82%29.89 "Hg8 mi
5:58 pm76 °FLight rain. Mostly cloudy.9 mph80%29.89 "Hg1 mi
Weather by CustomWeather, © 2020

See weather overview